This demonstration page uses our WeatherBlox Daily Observations layout. Learn more.

Left ArrowRight Arrow

Hourly Observations for February 4, 2022

Temp ( °F °C ) Dew Point ( °F °C ) Humidity (%) Winds ( mph kmh ) Pressure ( in mb ) Visibility ( mi km ) Precip ( " mm )
12:15 am 00:15 Clear 10 -12 -1 -18.6 58 58 SW 10 17 30.57 1035 10 16 0.00 0.00
12:35 am 00:35 Clear 11 -11.5 0 -17.9 59 59 SW 9 15 30.57 1035 10 16 0.00 0.00
12:55 am 00:55 Clear 11 -11.8 0 -18 60 60 SW 7 11 30.57 1035 10 16 0.00 0.00
1:15 am 01:15 Clear 11 -11.7 1 -17.5 62 62 WSW 8 13 30.55 1035 10 16 0.00 0.00
1:35 am 01:35 Clear 11 -11.7 1 -17 65 65 WSW 7 11 30.55 1035 10 16 0.00 0.00
1:55 am 01:55 Clear 11 -11.5 2 -16.6 66 66 WSW 10 17 30.55 1035 10 16 0.00 0.00
2:15 am 02:15 Clear 11 -11.5 2 -16.5 67 67 WSW 8 13 30.55 1035 10 16 0.00 0.00
2:35 am 02:35 Clear 11 -11.7 2 -16.5 68 68 WSW 7 11 30.55 1035 10 16 0.00 0.00
2:55 am 02:55 Clear 10 -12 2 -16.5 69 69 WSW 9 15 30.56 1035 10 16 0.00 0.00
3:15 am 03:15 Clear 10 -12.4 2 -16.8 70 70 W 8 13 30.56 1035 10 16 0.00 0.00
3:35 am 03:35 Clear 9 -12.9 1 -17 72 72 W 9 15 30.57 1035 10 16 0.00 0.00
3:55 am 03:55 Clear 8 -13.1 1 -17 73 73 W 10 17 30.57 1035 10 16 0.00 0.00
4:15 am 04:15 Clear 8 -13.3 1 -17 74 74 W 9 15 30.56 1035 10 16 0.00 0.00
4:35 am 04:35 Clear 8 -13.2 1 -17 73 73 W 9 15 30.56 1035 10 16 0.00 0.00
4:55 am 04:55 Clear 8 -13.5 1 -17.2 74 74 W 8 13 30.56 1035 10 16 0.00 0.00
5:15 am 05:15 Clear 8 -13.6 1 -17.5 73 73 W 8 13 30.57 1035 10 16 0.00 0.00
5:35 am 05:35 Clear 8 -13.5 1 -17.4 73 73 W 7 11 30.56 1035 10 16 0.00 0.00
5:55 am 05:55 Clear 8 -13.2 1 -17.1 73 73 W 7 11 30.56 1035 10 16 0.00 0.00
6:15 am 06:15 Clear 8 -13.2 1 -17.2 72 72 W 8 13 30.57 1035 10 16 0.00 0.00
6:35 am 06:35 Clear 8 -13.4 1 -17.3 73 73 W 9 15 30.57 1035 10 16 0.00 0.00
6:55 am 06:55 Clear 8 -13.2 1 -17.1 73 73 W 8 13 30.57 1035 10 16 0.00 0.00
7:15 am 07:15 Clear 8 -13.2 1 -17 73 73 W 7 11 30.58 1036 10 16 0.00 0.00
7:35 am 07:35 Clear 9 -12.6 2 -16.4 74 74 W 7 11 30.58 1036 10 16 0.00 0.00
7:55 am 07:55 Sunny 10 -12.3 3 -16.1 74 74 W 7 11 30.59 1036 10 16 0.00 0.00
8:15 am 08:15 Sunny 10 -12.2 2 -16.4 71 71 WNW 6 9 30.59 1036 10 16 0.00 0.00
8:35 am 08:35 Sunny 12 -11.3 4 -15.5 71 71 W 8 13 30.58 1036 10 16 0.00 0.00
8:55 am 08:55 Partly Cloudy 16 -9.1 7 -14.1 67 67 WNW 7 11 30.56 1035 10 16 0.00 0.00
9:15 am 09:15 Mostly Cloudy 20 -6.7 8 -13.2 60 60 WNW 8 13 30.54 1034 10 16 0.00 0.00
9:35 am 09:35 Partly Cloudy 24 -4.6 10 -12 57 57 WNW 8 13 30.53 1034 10 16 0.00 0.00
9:55 am 09:55 Sunny 28 -2.2 11 -11.6 49 49 WNW 9 15 30.51 1033 10 16 0.00 0.00
10:15 am 10:15 Sunny 29 -1.6 11 -11.7 46 46 N 7 11 30.51 1033 10 16 0.00 0.00
10:35 am 10:35 Sunny 30 -1.1 11 -11.6 45 45 NNW 9 15 30.52 1033 10 16 0.00 0.00
10:55 am 10:55 Sunny 30 -0.9 10 -12 43 43 NNW 8 13 30.51 1033 10 16 0.00 0.00
11:15 am 11:15 Sunny 31 -0.3 10 -12 41 41 N 7 11 30.52 1033 10 16 0.00 0.00
11:35 am 11:35 Sunny 32 0 11 -11.9 41 41 NNW 9 15 30.52 1033 10 16 0.00 0.00
11:55 am 11:55 Sunny 33 0.6 10 -12.3 38 38 N 9 15 30.51 1033 10 16 0.00 0.00
12:15 pm 12:15 Sunny 34 1.2 10 -12.1 37 37 N 12 19 30.50 1033 10 16 0.00 0.00
12:35 pm 12:35 Sunny 34 1.1 10 -12.2 37 37 NNW 7 11 30.50 1033 10 16 0.00 0.00
12:55 pm 12:55 Sunny 35 1.9 10 -12 35 35 N 7 11 30.48 1032 10 16 0.00 0.00
1:15 pm 13:15 Sunny 36 2.3 11 -11.8 35 35 N 8 13 30.46 1032 10 16 0.00 0.00
1:35 pm 13:35 Sunny 38 3.1 11 -11.5 34 34 NW 5 7 30.46 1031 10 16 0.00 0.00
1:55 pm 13:55 Sunny 38 3.3 11 -11.5 33 33 NNW 8 13 30.45 1031 10 16 0.00 0.00
2:15 pm 14:15 Sunny 39 3.7 11 -11.5 32 32 NW 6 9 30.44 1031 10 16 0.00 0.00
2:35 pm 14:35 Sunny 38 3.5 11 -11.4 33 33 NW 3 6 30.43 1031 10 16 0.00 0.00
2:55 pm 14:55 Sunny 39 4 12 -11.2 32 32 NW 7 11 30.43 1030 10 16 0.00 0.00
3:15 pm 15:15 Sunny 40 4.2 12 -11.1 32 32 WNW 5 7 30.43 1030 10 16 0.00 0.00
3:35 pm 15:35 Sunny 41 4.8 13 -10.7 32 32 W 9 15 30.42 1030 10 16 0.00 0.00
3:55 pm 15:55 Sunny 41 5 13 -10.6 32 32 WNW 6 9 30.42 1030 10 16 0.00 0.00
4:15 pm 16:15 Sunny 41 5.2 13 -10.5 31 31 Calm 30.42 1030 10 16 0.00 0.00
4:35 pm 16:35 Sunny 41 5.2 13 -10.5 31 31 NNW 6 9 30.42 1030 10 16 0.00 0.00
4:55 pm 16:55 Sunny 41 5.1 13 -10.5 32 32 NNW 5 7 30.42 1030 10 16 0.00 0.00
5:15 pm 17:15 Sunny 40 4.6 13 -10.7 32 32 Calm 30.41 1030 10 16 0.00 0.00
5:35 pm 17:35 Sunny 39 4 12 -11.1 33 33 Calm 30.42 1030 10 16 0.00 0.00
5:55 pm 17:55 Sunny 36 2 10 -12.1 35 35 ESE 5 7 30.44 1031 10 16 0.00 0.00
6:15 pm 18:15 Clear 29 -1.6 8 -13.3 41 41 ESE 6 9 30.47 1032 10 16 0.00 0.00
6:35 pm 18:35 Clear 29 -1.7 9 -12.9 43 43 SE 7 11 30.47 1032 10 16 0.00 0.00
6:55 pm 18:55 Clear 26 -3.6 7 -13.7 46 46 ESE 8 13 30.49 1033 10 16 0.00 0.00
7:15 pm 19:15 Clear 26 -3.4 10 -12.4 50 50 SE 9 15 30.49 1032 10 16 0.00 0.00
7:35 pm 19:35 Clear 25 -3.9 8 -13.2 49 49 SE 7 11 30.49 1033 10 16 0.00 0.00
7:55 pm 19:55 Clear 23 -5 7 -13.8 50 50 ESE 9 15 30.51 1033 10 16 0.00 0.00
8:15 pm 20:15 Clear 22 -5.3 8 -13.5 53 53 SE 8 13 30.51 1033 10 16 0.00 0.00
8:35 pm 20:35 Clear 23 -5.1 8 -13.2 53 53 SE 8 13 30.51 1033 10 16 0.00 0.00
8:55 pm 20:55 Clear 23 -4.9 9 -12.8 54 54 SSE 7 11 30.50 1033 10 16 0.00 0.00
9:15 pm 21:15 Clear 23 -5.1 8 -13.1 54 54 SSE 8 13 30.51 1033 10 16 0.00 0.00
9:35 pm 21:35 Clear 22 -5.4 9 -12.9 56 56 SSE 7 11 30.50 1033 10 16 0.00 0.00
9:55 pm 21:55 Clear 23 -5.2 10 -12.5 57 57 SSE 6 9 30.50 1033 10 16 0.00 0.00
10:15 pm 22:15 Clear 23 -5.2 10 -12.5 57 57 SSE 9 15 30.50 1033 10 16 0.00 0.00
10:35 pm 22:35 Clear 22 -5.5 10 -12.5 58 58 SSE 8 13 30.50 1033 10 16 0.00 0.00
10:55 pm 22:55 Clear 21 -5.9 10 -12.4 60 60 SSE 7 11 30.49 1033 10 16 0.00 0.00
11:15 pm 23:15 Clear 22 -5.5 10 -12 61 61 SSE 8 13 30.48 1032 10 16 0.00 0.00
11:35 pm 23:35 Clear 21 -6.1 10 -12.2 62 62 SSE 7 11 30.48 1032 10 16 0.00 0.00
11:55 pm 23:55 Clear 22 -5.8 10 -12.1 61 61 S 6 9 30.46 1032 10 16 0.00 0.00

Powered by AerisWeather